�������l�o���
Date,Time,MP-1(��Sv/h),MP-2(��Sv/h),MP-3(��Sv/h),MP-4(��Sv/h),MP-5(��Sv/h),MP-6(��Sv/h),MP-7(��Sv/h),MP-8(��Sv/h),����,����(m/s),���J
2016/12/14,00:00,1.075,1.767,1.174,2.027,1.384,0.567,1.025,0.954,�k�k��,7.0,�L
2016/12/14,00:10,1.071,1.764,1.173,2.025,1.379,0.567,1.025,0.953,�k�k��,9.0,�L
2016/12/14,00:20,1.073,1.764,1.168,2.018,1.378,0.566,1.026,0.952,�k��,8.8,�L
2016/12/14,00:30,1.071,1.762,1.170,2.020,1.376,0.567,1.025,0.955,�k�k��,9.1,�L
2016/12/14,00:40,1.070,1.760,1.169,2.017,1.377,0.567,1.022,0.951,�k�k��,8.9,�L
2016/12/14,00:50,1.070,1.757,1.168,2.012,1.380,0.568,1.022,0.950,�k�k��,9.3,�L
2016/12/14,01:00,1.067,1.756,1.167,2.012,1.373,0.566,1.023,0.950,�k�k��,9.3,�L
2016/12/14,01:10,1.065,1.753,1.165,2.006,1.371,0.564,1.019,0.950,�k�k��,8.5,�L
2016/12/14,01:20,1.064,1.746,1.162,2.000,1.364,0.565,1.020,0.948,�k�k��,9.4,�L
2016/12/14,01:30,1.061,1.746,1.163,2.000,1.364,0.566,1.020,0.950,�k�k��,10.0,�L
2016/12/14,01:40,1.062,1.747,1.161,2.001,1.363,0.564,1.017,0.949,�k�k��,11.3,�L
2016/12/14,01:50,1.062,1.741,1.160,1.999,1.361,0.563,1.015,0.946,�k�k��,10.4,�L
2016/12/14,02:00,1.059,1.741,1.158,1.992,1.358,0.562,1.014,0.947,�k�k��,11.6,�L
2016/12/14,02:10,1.060,1.740,1.154,1.992,1.353,0.562,1.015,0.947,�k�k��,12.4,�L
2016/12/14,02:20,1.060,1.743,1.154,1.993,1.355,0.562,1.017,0.948,�k�k��,10.2,�L
2016/12/14,02:30,1.060,1.742,1.158,1.995,1.352,0.563,1.015,0.947,�k�k��,9.4,�L
2016/12/14,02:40,1.060,1.735,1.154,1.988,1.345,0.562,1.014,0.945,�k�k��,10.8,�L
2016/12/14,02:50,1.057,1.736,1.154,1.989,1.346,0.563,1.012,0.946,�k�k��,11.6,�L
2016/12/14,03:00,1.058,1.736,1.152,1.985,1.345,0.562,1.012,0.945,�k�k��,9.5,�L
2016/12/14,03:10,1.056,1.736,1.151,1.987,1.344,0.561,1.012,0.944,�k�k��,13.5,�L
2016/12/14,03:20,1.056,1.734,1.150,1.984,1.341,0.560,1.012,0.944,�k��,10.0,�L
2016/12/14,03:30,1.057,1.734,1.148,1.987,1.339,0.561,1.013,0.945,�k�k��,11.7,�L
2016/12/14,03:40,1.055,1.734,1.147,1.982,1.340,0.560,1.011,0.943,�k�k��,13.1,�L
2016/12/14,03:50,1.051,1.731,1.148,1.983,1.334,0.560,1.012,0.943,�k�k��,10.8,�L
2016/12/14,04:00,1.052,1.734,1.147,1.982,1.337,0.556,1.010,0.943,-,CALM,�L
2016/12/14,04:10,1.052,1.728,1.144,1.974,1.332,0.559,1.006,0.943,�k�k��,10.5,�L
2016/12/14,04:20,1.047,1.728,1.143,1.976,1.328,0.557,1.008,0.942,�k��,12.5,�L
2016/12/14,04:30,1.050,1.729,1.143,1.974,1.333,0.556,1.009,0.942,-,CALM,�L
2016/12/14,04:40,1.047,1.725,1.141,1.975,1.327,0.556,1.009,0.943,-,CALM,�L
2016/12/14,04:50,1.045,1.725,1.140,1.973,1.329,0.554,1.006,0.941,�k��,11.7,�L
2016/12/14,05:00,1.044,1.724,1.140,1.971,1.326,0.556,1.006,0.940,�k�k��,11.3,�L
2016/12/14,05:10,1.042,1.721,1.140,1.968,1.326,0.556,1.006,0.940,�k�k��,12.7,�L
2016/12/14,05:20,1.040,1.716,1.137,1.964,1.319,0.555,1.002,0.940,�k��,9.8,�L
2016/12/14,05:30,1.039,1.716,1.138,1.963,1.314,0.554,1.002,0.939,�k��,9.8,�L
2016/12/14,05:40,1.040,1.718,1.139,1.966,1.316,0.555,1.003,0.940,�k��,9.6,�L
2016/12/14,05:50,1.039,1.713,1.137,1.963,1.313,0.554,1.003,0.940,�k�k��,3.4,�L
2016/12/14,06:00,1.040,1.715,1.139,1.960,1.317,0.555,1.003,0.939,�k�k��,9.6,�L
2016/12/14,06:10,1.041,1.717,1.137,1.958,1.314,0.556,1.002,0.939,�k�k��,12.4,�L
2016/12/14,06:20,1.042,1.720,1.139,1.962,1.314,0.557,1.001,0.937,�k�k��,10.9,�L
2016/12/14,06:30,1.043,1.716,1.140,1.965,1.313,0.559,1.001,0.940,�k�k��,11.4,�L
2016/12/14,06:40,1.045,1.719,1.139,1.962,1.314,0.558,1.000,0.940,�k�k��,11.0,�L
2016/12/14,06:50,1.048,1.720,1.141,1.966,1.315,0.561,1.002,0.942,�k�k��,12.0,�L
2016/12/14,07:00,1.048,1.724,1.141,1.966,1.321,0.561,1.005,0.941,�k�k��,11.7,�L
2016/12/14,07:10,1.050,1.731,1.145,1.974,1.321,0.560,1.006,0.942,�k�k��,13.1,��
2016/12/14,07:20,1.054,1.731,1.146,1.976,1.325,0.560,1.008,0.946,�k�k��,12.2,�L
2016/12/14,07:30,1.054,1.737,1.147,1.978,1.327,0.559,1.007,0.943,�k�k��,11.6,�L
2016/12/14,07:40,1.053,1.742,1.150,1.978,1.329,0.560,1.010,0.945,�k�k��,11.0,�L
2016/12/14,07:50,1.058,1.739,1.150,1.980,1.330,0.561,1.010,0.944,�k�k��,12.4,�L
2016/12/14,08:00,1.058,1.744,1.152,1.980,1.330,0.560,1.010,0.946,�k�k��,11.6,�L
2016/12/14,08:10,1.057,1.743,1.152,1.982,1.332,0.560,1.011,0.943,�k�k��,11.6,��
2016/12/14,08:20,1.054,1.751,1.151,1.985,1.334,0.562,1.009,0.944,�k�k��,11.8,��
2016/12/14,08:30,1.055,1.750,1.150,1.984,1.338,0.559,1.010,0.944,�k�k��,11.1,��
2016/12/14,08:40,1.060,1.752,1.152,1.986,1.341,0.559,1.010,0.944,�k�k��,11.4,��
2016/12/14,08:50,1.061,1.750,1.154,1.989,1.339,0.558,1.012,0.945,�k�k��,9.8,��
2016/12/14,09:00,1.062,1.750,1.150,1.990,1.342,0.559,1.013,0.944,�k�k��,10.8,��
2016/12/14,09:10,1.063,1.755,1.154,1.992,1.343,0.557,1.013,0.945,�k�k��,11.3,��
2016/12/14,09:20,1.062,1.756,1.153,1.995,1.344,0.557,1.013,0.947,�k�k��,10.2,��
2016/12/14,09:30,1.060,1.756,1.154,1.992,1.342,0.558,1.014,0.945,�k�k��,9.9,��
2016/12/14,09:40,1.061,1.757,1.154,1.998,1.341,0.558,1.013,0.946,�k�k��,9.9,��
2016/12/14,09:50,1.061,1.757,1.152,1.997,1.346,0.559,1.017,0.945,�k�k��,9.5,��
2016/12/14,10:00,1.061,1.758,1.154,1.996,1.345,0.558,1.015,0.946,�k�k��,10.0,��
2016/12/14,10:10,1.063,1.761,1.154,1.998,1.347,0.559,1.017,0.947,�k�k��,9.3,��
2016/12/14,10:20,1.065,1.758,1.152,1.999,1.349,0.560,1.015,0.948,�k�k��,9.5,��
2016/12/14,10:30,1.065,1.758,1.154,1.998,1.349,0.559,1.015,0.949,�k�k��,9.9,��
2016/12/14,10:40,1.064,1.750,1.155,2.003,1.351,0.560,1.017,0.948,�k�k��,9.5,��
2016/12/14,10:50,1.064,1.746,1.156,2.004,1.349,0.559,1.017,0.948,�k�k��,7.4,��
2016/12/14,11:00,1.062,-,1.157,2.002,1.354,0.560,1.017,0.949,�k�k��,9.0,��
2016/12/14,11:10,1.066,1.755,1.156,2.003,1.352,0.561,1.019,0.948,�k�k��,8.2,��
2016/12/14,11:20,1.067,1.756,1.158,2.004,1.353,0.560,1.019,0.948,�k�k��,9.6,��
2016/12/14,11:30,1.069,1.748,1.156,2.005,1.355,0.561,1.018,0.948,�k�k��,7.5,��
2016/12/14,11:40,1.069,1.761,1.158,2.004,1.354,0.560,1.018,0.948,�k�k��,8.9,��
2016/12/14,11:50,1.071,1.762,1.159,2.006,1.355,0.560,1.021,0.949,�k�k��,8.3,��
2016/12/14,12:00,1.071,-,1.159,2.008,1.357,0.560,1.019,0.948,�k�k��,7.2,��
2016/12/14,12:10,1.070,1.751,1.159,2.008,1.358,0.559,1.020,0.947,�k�k��,7.5,��
2016/12/14,12:20,1.072,1.764,1.160,2.012,1.358,0.560,1.022,0.950,�k�k��,7.6,��
2016/12/14,12:30,1.071,1.772,1.160,2.011,1.361,0.561,1.022,0.949,�k,9.4,��
2016/12/14,12:40,1.071,1.773,1.163,2.009,1.359,0.560,1.021,0.949,�k,8.9,��
2016/12/14,12:50,1.074,1.771,1.164,2.007,1.360,0.560,1.022,0.949,�k�k��,9.2,��
2016/12/14,13:00,1.071,1.770,1.161,2.011,1.362,0.560,1.020,0.950,�k�k��,8.1,��
2016/12/14,13:10,1.073,1.774,1.162,2.011,1.362,0.563,1.020,0.949,�k�k��,7.6,��
2016/12/14,13:20,1.074,1.779,1.161,2.012,1.363,0.562,1.018,0.950,�k�k��,7.5,��
2016/12/14,13:30,1.076,1.774,1.163,2.012,1.363,0.560,1.019,0.952,�k,7.0,��
2016/12/14,13:40,1.071,1.776,1.163,2.013,1.364,0.562,1.021,0.947,�k,6.7,��
2016/12/14,13:50,1.072,1.777,1.162,2.015,1.365,0.562,1.021,0.949,�k�k��,4.9,��
2016/12/14,14:00,1.074,1.777,1.163,2.015,1.365,0.563,1.019,0.950,�k�k��,4.9,��
2016/12/14,14:10,1.075,1.776,1.164,2.014,1.365,0.561,1.021,0.948,�k,5.2,��
2016/12/14,14:20,1.073,1.778,1.162,2.014,1.366,0.561,1.022,0.950,�k�k��,5.7,��
2016/12/14,14:30,1.075,1.776,1.164,2.018,1.365,0.562,1.021,-,�k�k��,5.2,��
2016/12/14,14:40,1.075,1.778,1.164,2.017,1.367,0.563,1.023,0.950,�k�k��,5.5,��
2016/12/14,14:50,1.075,1.781,1.164,2.016,1.368,0.563,1.020,0.950,�k�k��,8.0,��
2016/12/14,15:00,1.075,1.781,1.165,2.017,1.370,0.561,1.022,0.950,�k��,8.2,��
2016/12/14,15:10,1.076,1.781,1.165,2.017,1.368,0.563,1.021,0.951,�k�k��,6.7,��
2016/12/14,15:20,1.075,1.783,1.165,2.019,1.368,0.563,1.022,0.952,�k�k��,5.6,��
2016/12/14,15:30,1.075,1.782,1.166,2.018,1.370,0.562,1.023,-,�k�k��,7.2,��
2016/12/14,15:40,1.076,1.781,1.166,2.018,1.368,0.562,1.024,-,�k�k��,6.1,��
2016/12/14,15:50,1.076,1.782,1.163,2.018,1.370,0.562,1.022,0.952,�k�k��,6.6,��
2016/12/14,16:00,1.074,1.785,1.165,2.021,1.371,0.561,1.024,0.951,�k�k��,7.4,��
2016/12/14,16:10,1.075,1.783,1.167,2.022,1.368,0.562,1.022,0.953,�k�k��,7.0,��
2016/12/14,16:20,1.077,1.783,1.165,2.021,1.368,0.562,1.026,0.952,�k�k��,6.6,��
2016/12/14,16:30,1.077,1.783,1.165,2.021,1.368,0.562,1.025,0.952,�k�k��,5.5,��
2016/12/14,16:40,1.078,1.783,1.168,2.022,1.367,0.563,1.025,0.951,�k�k��,5.0,��
2016/12/14,16:50,1.075,1.781,1.166,2.019,1.371,0.563,1.024,0.950,�k�k��,4.1,��
2016/12/14,17:00,1.074,1.781,1.164,2.020,1.370,0.563,1.024,0.953,�k�k��,3.6,��
2016/12/14,17:10,1.074,1.785,1.166,2.019,1.371,0.562,1.025,0.951,�k�k��,2.6,��
2016/12/14,17:20,1.074,1.783,1.168,2.020,1.367,0.562,1.022,0.951,�k��,3.2,��
2016/12/14,17:30,1.077,1.784,1.164,2.018,1.372,0.563,1.024,0.951,�k��,3.2,��
2016/12/14,17:40,1.074,1.784,1.163,2.020,1.370,0.564,1.024,0.952,�k��,2.8,��
2016/12/14,17:50,1.074,1.782,1.163,2.020,1.371,0.562,1.023,0.951,�k��,3.4,��
2016/12/14,18:00,1.074,1.783,1.164,2.019,1.370,0.564,1.022,0.950,�k��,4.3,��
2016/12/14,18:10,1.074,1.783,1.165,2.017,1.371,0.562,1.025,0.951,�k��,6.1,��
2016/12/14,18:20,1.075,1.782,1.162,2.019,1.370,0.563,1.023,0.950,�k��,5.3,��
2016/12/14,18:30,1.074,1.782,1.164,2.019,1.371,0.562,1.024,0.950,�k��,4.5,��
2016/12/14,18:40,1.073,1.781,1.164,2.021,1.371,0.562,1.025,0.951,�k��,5.2,��
2016/12/14,18:50,1.074,1.782,1.165,2.019,1.372,0.562,1.023,0.950,�k��,5.3,��
2016/12/14,19:00,1.073,1.781,1.165,2.021,1.371,0.564,1.025,0.950,�k�k��,4.7,��
2016/12/14,19:10,1.074,1.782,1.163,2.018,1.375,0.562,1.025,0.952,�k��,4.1,��
2016/12/14,19:20,1.076,1.782,1.167,2.023,1.372,0.563,1.026,0.952,�k��,3.3,��
2016/12/14,19:30,1.074,1.785,1.165,2.019,1.372,0.562,1.024,0.951,�k��,2.8,��
2016/12/14,19:40,1.074,1.780,1.163,2.021,1.372,0.562,1.024,0.950,�k�k��,2.3,��
2016/12/14,19:50,1.075,1.785,1.166,2.021,1.374,0.562,1.026,0.952,�k��,2.3,��
2016/12/14,20:00,1.074,1.785,1.165,2.022,1.373,0.561,1.024,0.952,���k��,2.0,��
2016/12/14,20:10,1.075,1.785,1.166,2.020,1.373,0.564,1.023,0.952,�k��,2.8,��
2016/12/14,20:20,1.074,1.786,1.165,2.022,1.377,0.565,1.025,0.952,���k��,3.6,��
2016/12/14,20:30,1.075,1.786,1.165,2.021,1.372,0.562,1.024,0.952,���k��,4.3,��
2016/12/14,20:40,1.074,1.786,1.167,2.020,1.373,0.562,1.025,0.950,�k��,4.3,��
2016/12/14,20:50,1.075,1.786,1.164,2.025,1.375,0.563,1.023,0.951,�k��,4.1,��
2016/12/14,21:00,1.074,1.784,1.165,2.022,1.373,0.562,1.024,0.951,�k��,4.2,��
2016/12/14,21:10,1.075,1.786,1.165,2.023,1.374,0.562,1.023,0.951,���k��,4.2,��
2016/12/14,21:20,1.074,1.788,1.164,2.021,1.377,0.562,1.023,0.953,���k��,4.6,��
2016/12/14,21:30,1.073,1.786,1.165,2.023,1.376,0.561,1.025,0.951,���k��,4.9,��
2016/12/14,21:40,1.075,1.783,1.164,2.024,1.373,0.563,1.024,0.951,���k��,4.7,��
2016/12/14,21:50,1.074,1.786,1.165,2.022,1.373,0.561,1.025,0.950,���k��,5.3,��
2016/12/14,22:00,1.073,1.784,1.165,2.021,1.375,0.565,1.022,0.953,���k��,4.2,��
2016/12/14,22:10,1.073,1.786,1.163,2.022,1.375,0.562,1.023,0.951,�k��,3.2,��
2016/12/14,22:20,1.073,1.785,1.165,2.024,1.374,0.562,1.025,0.952,�k��,3.7,��
2016/12/14,22:30,1.075,1.786,1.166,2.023,1.374,0.563,1.023,0.951,�k��,5.1,��
2016/12/14,22:40,1.074,1.783,1.164,2.022,1.374,0.561,1.024,0.951,�k�k��,4.5,��
2016/12/14,22:50,1.071,1.783,1.165,2.023,1.373,0.562,1.023,0.951,�k�k��,4.1,��
2016/12/14,23:00,1.072,1.788,1.165,2.023,1.376,0.562,1.022,0.950,�k�k��,3.1,��
2016/12/14,23:10,1.074,1.784,1.165,2.020,1.376,0.561,1.024,0.952,�k��,2.0,��
2016/12/14,23:20,1.071,1.785,1.163,2.021,1.373,0.562,1.025,0.949,���k��,4.6,��
2016/12/14,23:30,1.071,1.784,1.162,2.023,1.375,0.563,1.022,0.950,�k��,2.6,��
2016/12/14,23:40,1.072,1.786,1.163,2.021,1.377,0.562,1.023,0.951,��,3.8,��
2016/12/14,23:50,1.070,1.784,1.165,2.023,1.375,0.562,1.022,0.953,��,3.9,��
